Tillbaka till svenska Fidonet
English   Information   Debug  
FILM   0/18
FNEWS_PUBLISH   4983
FN_SYSOP   42232
FN_SYSOP_OLD1   71952
FTP_FIDO   0/2
FTSC_PUBLIC   0/13976
FUNNY   0/4886
GENEALOGY.EUR   0/71
GET_INFO   105
GOLDED   16/408
HAM   3702/16714
HOLYSMOKE   0/6791
HOT_SITES   0/1
HTMLEDIT   0/71
HUB203   466
HUB_100   264
HUB_400   39
HUMOR   0/29
IC   0/2851
INTERNET   0/424
INTERUSER   0/3
IP_CONNECT   719
JAMNNTPD   0/233
JAMTLAND   0/47
KATTY_KORNER   0/41
LAN   0/16
LINUX-USER   0/19
LINUXHELP   0/1155
LINUX   0/22386
LINUX_BBS   0/957
mail   18.68
mail_fore_ok   249
MENSA   328/341
MODERATOR   0/102
MONTE   0/992
MOSCOW_OKLAHOMA   0/1245
MUFFIN   0/783
MUSIC   0/321
N203_STAT   938
N203_SYSCHAT   313
NET203   321
NET204   69
NET_DEV   0/10
NORD.ADMIN   0/101
NORD.CHAT   0/2572
NORD.FIDONET   189
NORD.HARDWARE   0/28
NORD.KULTUR   0/114
NORD.PROG   0/32
NORD.SOFTWARE   0/88
NORD.TEKNIK   0/58
NORD   0/453
OCCULT_CHAT   0/93
OS2BBS   0/787
OS2DOSBBS   0/580
OS2HW   0/42
OS2INET   0/37
OS2LAN   0/134
OS2PROG   0/36
OS2REXX   0/113
OS2USER-L   207
OS2   0/4831
OSDEBATE   0/18996
PASCAL   0/490
PERL   432/457
PHP   0/45
POINTS   0/405
POLITICS   0/29554
POL_INC   0/14731
PSION   103
R20_ADMIN   1133
R20_AMATORRADIO   0/2
R20_BEST_OF_FIDONET   16
R20_CHAT   0/897
R20_DEPP   0/3
R20_DEV   400
R20_ECHO2   1889
R20_ECHOPRES   0/35
R20_ESTAT   0/719
R20_FIDONETPROG...
...RAM.MYPOINT
  0/2
R20_FIDONETPROGRAM   0/22
R20_FIDONET   0/248
R20_FILEFIND   0/24
R20_FILEFOUND   0/22
R20_HIFI   0/3
R20_INFO2   3782
R20_INTERNET   0/12940
R20_INTRESSE   0/60
R20_INTR_KOM   0/99
R20_KANDIDAT.CHAT   42
R20_KANDIDAT   28
R20_KOM_DEV   112
R20_KONTROLL   0/13360
R20_KORSET   0/18
R20_LOKALTRAFIK   0/24
R20_MODERATOR   0/1852
R20_NC   76
R20_NET200   245
R20_NETWORK.OTH...
...ERNETS
  0/13
R20_OPERATIVSYS...
...TEM.LINUX
  0/44
R20_PROGRAMVAROR   0/1
R20_REC2NEC   534
R20_SFOSM   0/341
R20_SF   0/108
R20_SPRAK.ENGLISH   0/1
R20_SQUISH   107
R20_TEST   2
R20_WORST_OF_FIDONET   20
RAR   0/9
RA_MULTI   106
RA_UTIL   0/162
REGCON.EUR   0/2069
REGCON   0/13
SCIENCE   0/1206
SF   0/239
SHAREWARE_SUPPORT   0/5146
SHAREWRE   0/14
SIMPSONS   0/169
STATS_OLD1   0/2539.065
STATS_OLD2   0/2530
STATS_OLD3   0/2395.095
STATS_OLD4   0/1692.25
SURVIVOR   0/495
SYSOPS_CORNER   0/3
SYSOP   0/84
TAGLINES   0/112
TEAMOS2   0/4530
TECH   0/2617
TEST.444   0/105
TRAPDOOR   0/19
TREK   0/755
TUB   0/290
UFO   0/40
UNIX   0/1316
USA_EURLINK   0/102
USR_MODEMS   0/1
VATICAN   0/2740
VIETNAM_VETS   0/14
VIRUS   0/378
VIRUS_INFO   0/201
VISUAL_BASIC   0/473
WHITEHOUSE   0/5187
WIN2000   0/101
WIN32   0/30
WIN95   0/4291
WIN95_OLD1   0/70272
WINDOWS   0/1517
WWB_SYSOP   0/419
WWB_TECH   0/810
ZCC-PUBLIC   0/1
ZEC   4

 
4DOS   0/134
ABORTION   0/7
ALASKA_CHAT   0/506
ALLFIX_FILE   0/1313
ALLFIX_FILE_OLD1   0/7997
ALT_DOS   0/152
AMATEUR_RADIO   0/1039
AMIGASALE   0/14
AMIGA   0/331
AMIGA_INT   0/1
AMIGA_PROG   0/20
AMIGA_SYSOP   0/26
ANIME   0/15
ARGUS   0/924
ASCII_ART   0/340
ASIAN_LINK   0/651
ASTRONOMY   0/417
AUDIO   0/92
AUTOMOBILE_RACING   0/105
BABYLON5   0/17862
BAG   135
BATPOWER   0/361
BBBS.ENGLISH   0/382
BBSLAW   0/109
BBS_ADS   0/5290
BBS_INTERNET   0/507
BIBLE   0/3563
BINKD   0/1119
BINKLEY   0/215
BLUEWAVE   0/2173
CABLE_MODEMS   0/25
CBM   0/46
CDRECORD   0/66
CDROM   0/20
CLASSIC_COMPUTER   0/378
COMICS   0/15
CONSPRCY   0/899
COOKING   42003
COOKING_OLD1   0/24719
COOKING_OLD2   15990/40862
COOKING_OLD3   0/37489
COOKING_OLD4   0/35496
COOKING_OLD5   9370
C_ECHO   0/189
C_PLUSPLUS   0/31
DIRTY_DOZEN   0/201
DOORGAMES   0/2333
DOS_INTERNET   0/196
duplikat   6102
ECHOLIST   13895/18295
EC_SUPPORT   0/318
ELECTRONICS   0/359
ELEKTRONIK.GER   1534
ENET.LINGUISTIC   0/13
ENET.POLITICS   0/4
ENET.SOFT   0/11701
ENET.SYSOP   34332
ENET.TALKS   0/32
ENGLISH_TUTOR   0/2000
EVOLUTION   0/1335
FDECHO   0/217
FDN_ANNOUNCE   4804/7068
FIDONEWS   25122
FIDONEWS_OLD1   0/49742
FIDONEWS_OLD2   0/35949
FIDONEWS_OLD3   0/30874
FIDONEWS_OLD4   0/37224
FIDO_SYSOP   12973
FIDO_UTIL   0/180
FILEFIND   0/209
FILEGATE   0/212
Möte HAM, 16714 texter
 lista första sista föregående nästa
Text 3231, 871 rader
Skriven 2009-09-24 23:00:19 av Amsat List (1:323/120.0)
Ärende: [keps]  orb09267.amsa
=============================
[keps]  orb09267.amsa

Return-Path: <keps-bounces@amsat.org>
X-Rcpt: craig.healy@chowda.com
X-UIDL: 1253847420.16297

SB KEPS @ AMSAT  $ORB09267.O
Orbital Elements  09267.OSCAR

HR AMSAT ORBITAL ELEMENTS FOR OSCAR SATELLITES
FROM WA5QGD FORT WORTH,TX September 24, 2009
Send Subscribe/unsubscribe to KEPS at 
http://www.amsat.org/mailman/listinfo/keps
BID: ORB09267.O
TO ALL RADIO AMATEURS BT

Satellite: AO-07
Catalog number: 07530
Epoch time:      09266.64966380
Element set:    0589
Inclination:      101.4228 deg
RA of node:       287.6976 deg
Eccentricity:    0.0012113
Arg of perigee:   075.8139 deg
Mean anomaly:     284.4277 deg
Mean motion:   12.53576612 rev/day
Decay rate:       -2.7e-07 rev/day^2
Epoch rev:           59505
Checksum:              330

Satellite: FO-29
Catalog number: 24278
Epoch time:      09266.80386596
Element set:     138
Inclination:      098.5366 deg
RA of node:       127.5162 deg
Eccentricity:    0.0351354
Arg of perigee:   094.7707 deg
Mean anomaly:     269.3635 deg
Mean motion:   13.52945158 rev/day
Decay rate:        9.0e-08 rev/day^2
Epoch rev:           64708
Checksum:              353

Satellite: SO-33
Catalog number: 25509
Epoch time:      09267.23928596
Element set:     549
Inclination:      031.4297 deg
RA of node:       212.3954 deg
Eccentricity:    0.0354089
Arg of perigee:   124.5654 deg
Mean anomaly:     238.8897 deg
Mean motion:   14.28265184 rev/day
Decay rate:        1.5e-07 rev/day^2
Epoch rev:           57000
Checksum:              336

Satellite: RS-22
Catalog number: 27939
Epoch time:      09267.55197243
Element set:     897
Inclination:      097.9262 deg
RA of node:       138.7214 deg
Eccentricity:    0.0013436
Arg of perigee:   174.7247 deg
Mean anomaly:     185.4092 deg
Mean motion:   14.63341495 rev/day
Decay rate:       -3.0e-08 rev/day^2
Epoch rev:           32010
Checksum:              319

Satellite: VO-52
Catalog number: 28650
Epoch time:      09266.78655337
Element set:    0326
Inclination:      097.7326 deg
RA of node:       325.0550 deg
Eccentricity:    0.0028232
Arg of perigee:   068.8562 deg
Mean anomaly:     291.5677 deg
Mean motion:   14.81619575 rev/day
Decay rate:      -1.43e-06 rev/day^2
Epoch rev:           23724
Checksum:              333

/EX
SB KEPS @ AMSAT  $ORB09267.D
Orbital Elements  09267.MICROS

HR AMSAT ORBITAL ELEMENTS FOR THE MICROSATS
FROM WA5QGD FORT WORTH,TX September 24, 2009
Send Subscribe/unsubscribe to KEPS at 
http://www.amsat.org/mailman/listinfo/keps
BID: ORB09267.D
TO ALL RADIO AMATEURS BT

Satellite: AO-16
Catalog number: 20439
Epoch time:      09267.50489968
Element set:     709
Inclination:      098.2917 deg
RA of node:       231.4490 deg
Eccentricity:    0.0010086
Arg of perigee:   233.7439 deg
Mean anomaly:     126.2811 deg
Mean motion:   14.31833886 rev/day
Decay rate:        1.0e-07 rev/day^2
Epoch rev:            2736
Checksum:              315

Satellite: LO-19
Catalog number: 20442
Epoch time:      09266.84694949
Element set:    0625
Inclination:      098.2541 deg
RA of node:       237.7000 deg
Eccentricity:    0.0011066
Arg of perigee:   231.1320 deg
Mean anomaly:     128.8869 deg
Mean motion:   14.32068279 rev/day
Decay rate:        1.9e-07 rev/day^2
Epoch rev:           02743
Checksum:              306

Satellite: AO-27
Catalog number: 22825
Epoch time:      09266.85388774
Element set:     346
Inclination:      098.4473 deg
RA of node:       217.2178 deg
Eccentricity:    0.0008022
Arg of perigee:   339.9913 deg
Mean anomaly:     020.0949 deg
Mean motion:   14.29273067 rev/day
Decay rate:       -8.6e-07 rev/day^2
Epoch rev:           83400
Checksum:              332

Satellite: IO-26
Catalog number: 22826
Epoch time:      09267.80659827
Element set:      77
Inclination:      098.4404 deg
RA of node:       218.8481 deg
Eccentricity:    0.0008614
Arg of perigee:   332.5353 deg
Mean anomaly:     027.5381 deg
Mean motion:   14.29526422 rev/day
Decay rate:       -1.3e-07 rev/day^2
Epoch rev:           83424
Checksum:              315

Satellite: GO-32
Catalog number: 25397
Epoch time:      09266.78257704
Element set:     997
Inclination:      098.3237 deg
RA of node:       283.8310 deg
Eccentricity:    0.0001123
Arg of perigee:   011.5427 deg
Mean anomaly:     348.5754 deg
Mean motion:   14.23164028 rev/day
Decay rate:        1.2e-07 rev/day^2
Epoch rev:           58215
Checksum:              305

Satellite: NO-44
Catalog number: 26931
Epoch time:      09267.77078674
Element set:     272
Inclination:      067.0515 deg
RA of node:       167.7874 deg
Eccentricity:    0.0006739
Arg of perigee:   272.3991 deg
Mean anomaly:     087.6288 deg
Mean motion:   14.29566357 rev/day
Decay rate:      -2.56e-06 rev/day^2
Epoch rev:           41681
Checksum:              363

Satellite: SO-50
Catalog number: 27607
Epoch time:      09267.82285157
Element set:     992
Inclination:      064.5574 deg
RA of node:       082.4827 deg
Eccentricity:    0.0055465
Arg of perigee:   180.7329 deg
Mean anomaly:     179.3688 deg
Mean motion:   14.71459919 rev/day
Decay rate:       -5.5e-07 rev/day^2
Epoch rev:           36333
Checksum:              358

Satellite: CO-55
Catalog number: 27844
Epoch time:      09267.58021913
Element set:     674
Inclination:      098.7141 deg
RA of node:       275.3517 deg
Eccentricity:    0.0009079
Arg of perigee:   215.3853 deg
Mean anomaly:     144.6711 deg
Mean motion:   14.20656974 rev/day
Decay rate:        3.1e-07 rev/day^2
Epoch rev:           32337
Checksum:              318

